{"data":{"norad_id":49049,"intl_designator":"2021-067A","name":"TIANHUI 1-04","alt_names":[],"object_type":"PAYLOAD","status":"ACTIVE","operator":null,"country":"PRC","launch_date":"2021-07-29","launch_site_code":"JSC","launch_vehicle":null,"mission":null,"orbit_class":"UNKNOWN","rcs_meters":null,"size_class":null,"mass_kg":null,"dimensions":null,"purposes":[],"wikipedia_slug":null,"has_3d_model":false,"image_url":null,"decayed_at":null,"tle_current":{"epoch":"2026-05-25T04:59:52.938240Z","epoch_age_seconds":53529,"freshness":"FRESH","line1":"1 49049U 21067A   26145.20825160  .00004927  00000+0  20944-3 0  9997","line2":"2 49049  97.2777 214.0027 0000362  95.1944 264.9335 15.23480803268097","mean_motion":15.23480803,"eccentricity":3.62e-5,"inclination_deg":97.2777,"raan_deg":214.0027,"arg_perigee_deg":95.1944,"mean_anomaly_deg":264.9335,"bstar":0.00020944,"rev_number":26809,"period_min":94.520390225094,"perigee_km":495.10226025802,"apogee_km":495.59990079505,"semimajor_km":6873.4880805265,"source":"CELESTRAK","updated_at":"2026-05-25T13:37:57.049065Z"}}}